Regional Weather Roundup
Issued by NWS

Home | Current Version | Previous Version | Graphics & Text | Print | Product List | Glossary On
Versions: 1 2 3 4 5 6 7 8 9 10 11 12 13 14 15 16 17 18 19 20 21 22 23 24 25 26 27 28 29 30 31 32 33 34 35 36 37 38 39 40 41 42 43 44 45 46 47 48 49 50
525
ASUS43 KLSX 272310
RWRMO

WEATHER SUMMARY FOR MISSOURI
NATIONAL WEATHER SERVICE SPRINGFIELD MO
600 PM CDT TUE JUN 27 2017

NOTE: "FAIR" INDICATES FEW OR NO CLOUDS BELOW 12,000 FEET WITH NO
       SIGNIFICANT WEATHER AND/OR OBSTRUCTIONS TO VISIBILITY.
       CURRENT SKY AND/OR WEATHER CONDITIONS ARE NOT AVAILABLE FOR
       CHILLICOTHE AND FARMINGTON.

MOZ001>031-035>038-043-044-053-054-280000-
...NORTHERN AND WESTERN MISSOURI...

CITY           SKY/WX    TMP DP  RH WIND       PRES   REMARKS
KANSAS CTY INT PTSUNNY   78  66  66 S13       29.93F
KANSAS C DTWN  CLOUDY    83  65  54 S15G21    29.92F
LEE`S SUMMIT   CLOUDY    80  65  59 S14       29.95F
ST JOSEPH      CLOUDY    79  66  64 S14       29.91F
CHILLICOTHE      N/A     79  61  53 S10       29.97F
KIRKSVILLE     SUNNY     79  54  41 SE12      29.99F

$$
MOZ066>068-077>081-088>096-101>105-280000-
...SOUTHWEST MISSOURI...

CITY           SKY/WX    TMP DP  RH WIND       PRES   REMARKS
SPRINGFIELD    MOSUNNY   81  63  54 S13       30.00F
JOPLIN         MOSUNNY   85  66  53 S12       29.97F
BRANSON        PTSUNNY   82  63  51 SE12      30.04F

$$
MOZ032>034-039>042-045>050-055>058-069>072-280000-
...CENTRAL MISSOURI...

CITY           SKY/WX    TMP DP  RH WIND       PRES   REMARKS
COLUMBIA       SUNNY     79  60  52 SE9       30.00F
JEFFERSON CITY SUNNY     82  58  43 SE10      29.99F
ROLLA          MOSUNNY   80  61  52 SE8       30.02F
SEDALIA        MOSUNNY   79  67  66 SE8       29.99F
WHITEMAN AFB   MOSUNNY   80  67  64 S12       29.96
WARRENSBURG    PTSUNNY   79  63  57 SE8       29.96F
OSAGE BEACH    MOSUNNY   79  64  60 SE8       30.01F

$$
MOZ051-052-059>065-280000-
...EAST CENTRAL MISSOURI...

CITY           SKY/WX    TMP DP  RH WIND       PRES   REMARKS
ST LOUIS INTL  MOSUNNY   82  48  30 S6        30.04F
SPIRIT OF STL  MOSUNNY   81  49  32 S3        30.02F
ST CHARLES     SUNNY     81  51  35 SE9       30.02F

$$
MOZ072>076-082>087-097>100-106>115-280000-
...SOUTH CENTRAL AND SOUTHEAST MISSOURI...

CITY           SKY/WX    TMP DP  RH WIND       PRES   REMARKS
CAPE GIRARDEAU SUNNY     79  55  43 S3        30.04F
FARMINGTON     MOSUNNY   79  58  48 SE5       30.06F
POPLAR BLUFF   MOSUNNY   79  59  50 S5        30.04F
WEST PLAINS    MOSUNNY   79  62  56 SE7       30.06F

$$




USA.gov is the U.S. government's official web portal to all federal, state and local government web resources and services.